Date String (YYYY-MM-DD hh:mm:ss) UTC,Instrument flags,Ambient pressure (hPa),Sample flow (lpm),Bypass flow (lpm),Sample temperature (°C),Ambient temperature (°C),ASC tube jacket temperature (°C),LED temperature (°C),Box temperature (°C),Sample RH (%),Span deviation,Mass concentration (μg/m³),Mass concentration (μg/m³),Mass concentration (μg/m³)
DateTimeUTC,F1_M11,P_M11,Q1_M11,Q2_M11,T1_M11,T2_M11,T3_M11,T4_M11,T5_M11,U1_M11,ZSPAN_M11,X0_M11,X2_M11,X1_M11
2023-01-26 23:00:00,,0823.0,5.01,0.00,22.1,20.7,00.0,31.0,23.9,08.2,0000.0,0001.85,0000.72,0000.56
2023-01-26 23:01:00,,0823.0,4.98,0.00,22.1,20.7,00.0,31.0,23.8,08.0,0000.0,0001.88,0000.74,0000.56
2023-01-26 23:02:00,,0823.0,4.99,0.00,22.1,20.7,00.0,31.0,23.8,08.2,0000.0,0001.89,0000.74,0000.56
2023-01-26 23:03:00,,0822.9,4.99,0.00,22.1,20.6,00.0,31.0,23.8,08.4,0000.0,0001.87,0000.73,0000.57
2023-01-26 23:04:00,,0823.0,4.99,0.00,22.1,20.6,00.0,31.0,23.7,08.0,0000.0,0002.33,0000.74,0000.57
2023-01-26 23:05:00,,0822.9,5.00,0.00,22.1,20.6,00.0,31.0,23.7,07.8,0000.0,0002.38,0000.76,0000.58
2023-01-26 23:06:00,,0823.0,4.97,0.00,22.0,20.5,00.0,31.0,23.7,07.8,0000.0,0002.44,0000.78,0000.58
2023-01-26 23:07:00,,0823.0,5.01,0.00,22.0,20.5,00.0,31.0,23.7,07.7,0000.0,0002.62,0000.81,0000.58
2023-01-26 23:08:00,,0823.0,5.00,0.00,22.0,20.5,00.0,30.9,23.6,07.5,0000.0,0002.24,0000.83,0000.57
2023-01-26 23:09:00,,0822.9,5.01,0.00,22.0,20.4,00.0,30.9,23.6,07.8,0000.0,0002.09,0000.81,0000.56
2023-01-26 23:10:00,,0823.0,5.00,0.00,22.0,20.4,00.0,30.9,23.6,08.1,0000.0,0002.07,0000.80,0000.55
2023-01-26 23:11:00,,0823.0,5.00,0.00,22.0,20.4,00.0,30.9,23.6,08.0,0000.0,0002.10,0000.80,0000.54
2023-01-26 23:12:00,,0823.0,4.96,0.00,22.0,20.4,00.0,30.9,23.6,07.7,0000.0,0002.12,0000.79,0000.53
2023-01-26 23:13:00,,0823.0,5.01,0.00,21.9,20.4,00.0,30.9,23.6,07.4,0000.0,0002.19,0000.81,0000.52
2023-01-26 23:14:00,,0823.0,5.01,0.00,21.9,20.4,00.0,30.9,23.5,07.6,0000.0,0002.27,0000.83,0000.52
2023-01-26 23:15:00,,0823.0,4.99,0.00,22.0,20.9,00.0,30.8,23.8,07.6,0000.0,0001.77,0000.82,0000.51
2023-01-26 23:16:00,,0822.9,4.98,0.00,22.1,22.0,00.0,30.8,24.1,07.5,0000.0,0001.73,0000.79,0000.51
2023-01-26 23:17:00,,0822.9,4.99,0.00,22.2,22.7,00.0,30.9,24.3,07.2,0000.0,0003.00,0000.77,0000.50
2023-01-26 23:18:00,,0823.0,5.00,0.00,22.2,22.3,00.0,30.9,24.3,07.3,0000.0,0002.87,0000.74,0000.49
2023-01-26 23:19:00,,0823.0,5.03,0.00,22.3,22.0,00.0,31.0,24.2,07.6,0000.0,0003.40,0000.74,0000.48
2023-01-26 23:20:00,,0823.0,4.99,0.00,22.3,21.7,00.0,31.0,24.2,08.0,0000.0,0003.81,0000.78,0000.47
2023-01-26 23:21:00,,0823.0,4.98,0.00,22.3,21.5,00.0,31.0,24.2,07.6,0000.0,0003.74,0000.75,0000.47
2023-01-26 23:22:00,,0823.0,5.01,0.00,22.3,21.4,00.0,31.0,24.2,08.0,0000.0,0003.67,0000.72,0000.46
2023-01-26 23:23:00,,0823.0,4.97,0.00,22.3,21.2,00.0,31.1,24.1,07.5,0000.0,0003.60,0000.70,0000.46
2023-01-26 23:24:00,,0823.0,5.01,0.00,22.3,21.1,00.0,31.1,24.1,07.9,0000.0,0003.55,0000.68,0000.46
2023-01-26 23:25:00,,0822.9,5.00,0.00,22.3,21.0,00.0,31.1,24.0,07.7,0000.0,0003.50,0000.67,0000.47
2023-01-26 23:26:00,,0822.9,5.01,0.00,22.2,20.8,00.0,31.1,23.9,08.0,0000.0,0003.48,0000.66,0000.47
2023-01-26 23:27:00,,0823.0,5.00,0.00,22.2,20.7,00.0,31.1,23.9,08.5,0000.0,0003.51,0000.67,0000.47
2023-01-26 23:28:00,,0823.0,5.01,0.00,22.1,20.6,00.0,31.1,23.8,08.4,0000.0,0002.16,0000.69,0000.48
2023-01-26 23:29:00,,0822.9,5.00,0.00,22.1,20.4,00.0,31.1,23.8,08.0,0000.0,0002.17,0000.72,0000.49
2023-01-26 23:30:00,,0822.9,5.00,0.00,22.0,20.2,00.0,31.0,23.7,07.9,0000.0,0001.64,0000.74,0000.50
2023-01-26 23:31:00,,0822.9,5.00,0.00,22.0,20.0,00.0,31.0,23.6,07.9,0000.0,0001.38,0000.75,0000.53
2023-01-26 23:32:00,,0822.9,5.00,0.00,21.9,19.9,00.0,31.0,23.5,07.9,0000.0,0001.39,0000.76,0000.55
2023-01-26 23:33:00,,0822.8,5.01,0.00,21.9,19.8,00.0,31.0,23.5,07.7,0000.0,0001.52,0000.83,0000.57
2023-01-26 23:34:00,,0822.8,4.99,0.00,21.8,19.8,00.0,30.9,23.5,08.1,0000.0,0001.57,0000.86,0000.58
2023-01-26 23:35:00,,0822.9,5.01,0.00,21.8,19.8,00.0,30.9,23.4,08.5,0000.0,0001.67,0000.89,0000.59
2023-01-26 23:36:00,,0822.8,4.99,0.00,21.8,19.8,00.0,30.9,23.4,08.2,0000.0,0001.88,0000.96,0000.60
2023-01-26 23:37:00,,0822.9,4.99,0.00,21.7,19.8,00.0,30.8,23.4,08.2,0000.0,0001.94,0000.99,0000.60
2023-01-26 23:38:00,,0823.0,5.00,0.00,21.7,19.8,00.0,30.8,23.4,08.2,0000.0,0002.02,0001.03,0000.62
2023-01-26 23:39:00,,0823.0,5.01,0.00,21.7,19.9,00.0,30.8,23.4,08.3,0000.0,0001.99,0001.02,0000.62
2023-01-26 23:40:00,,0822.9,5.01,0.00,21.7,19.9,00.0,30.8,23.3,07.9,0000.0,0002.34,0001.00,0000.62
2023-01-26 23:41:00,,0822.8,5.01,0.00,21.6,19.9,00.0,30.7,23.3,07.8,0000.0,0003.95,0000.99,0000.61
2023-01-26 23:42:00,,0822.9,5.01,0.00,21.6,20.1,00.0,30.7,23.4,07.7,0000.0,0004.00,0000.95,0000.59
2023-01-26 23:43:00,,0823.0,5.01,0.00,21.7,21.1,00.0,30.7,23.6,08.0,0000.0,0004.02,0000.95,0000.57
2023-01-26 23:44:00,,0823.0,5.01,0.00,21.8,22.2,00.0,30.7,23.9,07.6,0000.0,0003.94,0000.90,0000.56
2023-01-26 23:45:00,,0823.0,5.00,0.00,22.0,22.6,00.0,30.7,24.1,07.9,0000.0,0003.88,0000.87,0000.55
2023-01-26 23:46:00,,0823.0,5.00,0.00,22.0,22.2,00.0,30.7,24.1,08.0,0000.0,0003.83,0000.86,0000.54
2023-01-26 23:47:00,,0823.0,5.00,0.00,22.0,21.8,00.0,30.8,24.0,07.8,0000.0,0003.60,0000.79,0000.53
2023-01-26 23:48:00,,0822.9,5.01,0.00,22.0,21.5,00.0,30.8,23.9,07.8,0000.0,0003.52,0000.76,0000.53
2023-01-26 23:49:00,,0822.8,4.99,0.00,22.0,21.2,00.0,30.8,23.9,08.2,0000.0,0003.41,0000.72,0000.51
2023-01-26 23:50:00,,0822.8,5.00,0.00,22.0,21.1,00.0,30.8,23.9,08.0,0000.0,0003.41,0000.72,0000.50
2023-01-26 23:51:00,,0822.8,5.01,0.00,22.0,21.0,00.0,30.9,23.9,07.9,0000.0,0002.95,0000.71,0000.49
2023-01-26 23:52:00,,0822.8,5.00,0.00,22.0,20.8,00.0,30.9,23.8,07.9,0000.0,0001.31,0000.69,0000.48
2023-01-26 23:53:00,,0822.8,4.98,0.00,22.0,20.6,00.0,30.9,23.8,07.8,0000.0,0001.07,0000.67,0000.48
2023-01-26 23:54:00,,0822.8,5.00,0.00,22.0,20.6,00.0,30.9,23.8,07.8,0000.0,0001.00,0000.66,0000.47
2023-01-26 23:55:00,,0822.8,5.01,0.00,22.0,20.5,00.0,30.9,23.8,07.7,0000.0,0000.97,0000.64,0000.46
2023-01-26 23:56:00,,0822.8,4.99,0.00,22.0,20.5,00.0,30.9,23.8,07.9,0000.0,0001.01,0000.65,0000.45
2023-01-26 23:57:00,,0822.8,4.99,0.00,22.0,20.5,00.0,30.9,23.8,07.9,0000.0,0000.98,0000.61,0000.44
2023-01-26 23:58:00,,0822.8,5.00,0.00,22.0,20.5,00.0,30.9,23.8,07.7,0000.0,0001.01,0000.61,0000.44
2023-01-26 23:59:00,,0822.9,5.00,0.00,22.0,20.5,00.0,30.9,23.8,07.7,0000.0,0000.98,0000.58,0000.43
